User: anonymous   Login
Location: Équennes
(49.7375°N, 1.9622°E)
Time: 19:25:00
(UTC+00:00)
Language:

Cosmos 1763 Rocket - Orbit

View from above orbital plane
View from above orbital plane
View from above satellite
View from above satellite

Ground track
Ground track

The orbit data is extracted from the following two-line orbital elements,

1 16864U 86052B   24151.23226686  .00000517  00000-0  16684-3 0  9995
2 16864  74.0299  75.0117 0033828 269.7083  90.0196 14.41390059988318
Epoch (UTC): 30 May 2024 05:34:27
Eccentricity: 0.0033828
inclination: 74.0299°
perigee height: 730 km
apogee height: 778 km
right ascension of ascending node: 75.0117°
argument of perigee: 269.7083°
revolutions per day: 14.41390059
mean anomaly at epoch: 90.0196°
orbit number at epoch: 98831

The dashed part of the orbit path shows where the satellite is in the earth's shadow,  

DLR